Back to catalog

TIROS 1

AliveWeatherLEO
NORAD 29·PAYLOAD·🇺🇸 United States

Launched Apr 1, 1960 from Cape Canaveral Space Force Station

Loading…

Next Passes (next 24 hours)

TLE

FreshSource: Space-Track

Epoch: Sep 8, 2026, 07:23 UTC

1    29U 60002B   26251.30778603  .00000269  00000-0  64885-4 0  9991
2    29  48.3797 349.5920 0022706 266.8431  92.9884 14.78861952554432

Track TIROS 1 in real time with AllMySat

Download on the App Store